Weather in Giardini Naxos

Italy     37°49′56″N   15°16′09″E
temp.,
°C
wind,
m/s
gust,
m/s
humid.,
%
clouds,
%
prec.,
mm/h
press.,
hPa
HPBL,
m
11 april, sun
sun1123:00+10sw127879 0.0 1024233
02:00+9nw117811 0.0 102373
05:00+9w117852 0.0 102291
08:00+11s1362100 0.0 1023253
11:00+14sse4560100 0.0 1023510
14:00+14se557393 0.0 1023597
17:00+13sse447896 0.0 1022566
20:00+12s248492 0.0 1023345
12 april, mon
mon1223:00+11ssw238231 0.0 1023315
02:00+11ssw238195 0.0 1023337
05:00+11ssw128289 0.0 1022267
08:00+12s127899 0.0 1022305
11:00+14se3469100 0.0 1022563
14:00+14se3371100 0.0 1021528
17:00+14se2274100 0.1 1020425
20:00+13ese1182100 0.1 102080
13 april, tue
tue1323:00+12n118542 0.0 102043
02:00+12nw018453 0.0 102053
05:00+11wnw01816 0.0 101954
08:00+14nne226920 0.0 1019158
11:00+15ese326936 0.0 1019617
14:00+16ene346929 0.4 1018476
17:00+15nne666715 0.3 1016502
20:00+12n68693 0.3 1016348
14 april, wed
wed1423:00+10nw346922 0.0 1018235
02:00+9nw23660 0.0 1017138
05:00+8nw23641 0.0 1017143
08:00+12wsw12569 0.0 1018284
11:00+15se33486 0.0 1018933
14:00+15se435010 0.0 1018697
17:00+14se225613 0.0 1018569
20:00+12w117013 0.0 1019177
15 april, thu
thu1523:00+10nnw33775 0.0 1021119
02:00+9nw22735 0.0 102098
05:00+9nnw227021 0.0 101995
08:00+11nne116987 0.0 1020166
11:00+12ene448176 0.1 1021567
14:00+13e337983 0.3 1020579
17:00+13e4386100 0.3 1019457
20:00+12ene3494100 2.3 1019295